This is the latest recevied weather packets stored in our database for station/object K7SKM. If no packets are shown the sender has not sent any weather packets the latest 1 day(s).
| Time | Temp. | Humidity | Pressure | Rain* | Wind** | Luminosity | Snow |
|---|---|---|---|---|---|---|---|
| 1778057958 | 13.33° C | 77% | 1022.3 hPa | 0 mm | - | 0 W/m² | - |
| 1778057351 | 13.33° C | 77% | 1021.9 hPa | 0 mm | - | 0 W/m² | - |
| 1778057048 | 13.33° C | 77% | 1021.9 hPa | 0 mm | - | 0 W/m² | - |
| 1778056744 | 13.33° C | 77% | 1021.9 hPa | 0 mm | - | 0 W/m² | - |
| 1778056139 | 13.33° C | 77% | 1022.1 hPa | 0 mm | - | 0 W/m² | - |
| 1778055531 | 13.33° C | 77% | 1022 hPa | 0 mm | - | 0 W/m² | - |
| 1778055230 | 13.33° C | 77% | 1021.9 hPa | 0 mm | - | 0 W/m² | - |
| 1778053716 | 12.78° C | 83% | 1022 hPa | 0 mm | - | 0 W/m² | - |
| 1778053110 | 12.78° C | 83% | 1021.8 hPa | 0 mm | - | 0 W/m² | - |
| 1778052808 | 12.78° C | 84% | 1021.9 hPa | 0 mm | - | 0 W/m² | - |
| 1778052202 | 12.22° C | 84% | 1021.6 hPa | 0 mm | - | 0 W/m² | - |
| 1778051900 | 12.22° C | 84% | 1021.6 hPa | 0 mm | - | 0 W/m² | - |
| 1778050386 | 12.22° C | 84% | 1021.3 hPa | 0 mm | - | 0 W/m² | - |
| 1778049778 | 12.22° C | 83% | 1021.5 hPa | 0 mm | - | 0 W/m² | - |
| 1778049173 | 12.78° C | 83% | 1021.4 hPa | 0 mm | - | 0 W/m² | - |
| 1778048264 | 12.78° C | 83% | 1021 hPa | 0 mm | - | 0 W/m² | - |
| 1778047660 | 12.78° C | 82% | 1020.8 hPa | 0 mm | - | 0 W/m² | - |
| 1778047054 | 12.78° C | 83% | 1020.7 hPa | 0 mm | - | 0 W/m² | - |
| 1778046448 | 13.33° C | 82% | 1020.6 hPa | 0 mm | - | 0 W/m² | - |
| 1778046144 | 13.33° C | 82% | 1020.6 hPa | 0 mm | - | 0 W/m² | - |
| 1778045540 | 13.89° C | 81% | 1020.5 hPa | 0 mm | - | 0 W/m² | - |
| 1778045237 | 13.89° C | 81% | 1020.5 hPa | 0 mm | - | 0 W/m² | - |
| 1778044936 | 13.89° C | 81% | 1020.6 hPa | 0 mm | - | 0 W/m² | - |
| 1778044633 | 13.89° C | 80% | 1020.5 hPa | 0 mm | - | 0 W/m² | - |
| 1778044329 | 13.89° C | 80% | 1020.5 hPa | 0 mm | - | 0 W/m² | - |
* Rain latest hour (hover to see other rain measurements)
** Current wind speed in m/s (hover to see current wind gust speed)